CCA147 ZSCN-ZSQD

Flight info

Callsign CCA147
Flight time 1h 2m
Altitude 351
Route DCT LAPEN W105 XSH W50 IKUBA V65 VILID W164 LEGIV W51 MADUK W73 MABOS/K0848S1100 W543 AKSIG/K0846S1070 W543 OF W185 YCH W113 GORPI/K0848S1100 B221 IDVEL DCT
Aircraft A321/M-SDE2E3GHIJ3J4J5LM1ORWXY/LB1D1

Departure

Time 2026-04-21 14:28
Airport Nanchang Changbei International Airport (ZSCN)

Arrival

Time 2026-04-21 15:31
Airport Qingdao Jiaodong International Airport (ZSQD)
Time Latitude Longitude Altitude Speed Heading
2026-04-21 14:21 28.86227 115.90547 145 ft 0 kts 115°
2026-04-21 14:21 28.86227 115.90548 145 ft 1 kts 115°
2026-04-21 14:21 28.86206 115.90594 142 ft 8 kts 127°
2026-04-21 14:22 28.86160 115.90599 142 ft 6 kts 194°
2026-04-21 14:22 28.86127 115.90586 142 ft 4 kts 204°
2026-04-21 14:22 28.86104 115.90574 141 ft 3 kts 204°
2026-04-21 14:22 28.86088 115.90566 141 ft 3 kts 204°
2026-04-21 14:23 28.86050 115.90547 139 ft 9 kts 202°
2026-04-21 14:23 28.85976 115.90513 140 ft 14 kts 202°
2026-04-21 14:23 28.85969 115.90446 140 ft 11 kts 306°
2026-04-21 14:23 28.86007 115.90351 140 ft 16 kts 293°
2026-04-21 14:24 28.86022 115.90252 140 ft 10 kts 223°
2026-04-21 14:24 28.85950 115.90218 139 ft 12 kts 203°
2026-04-21 14:24 28.85874 115.90177 139 ft 13 kts 205°
2026-04-21 14:24 28.85790 115.90134 138 ft 14 kts 204°
2026-04-21 14:25 28.85697 115.90090 137 ft 15 kts 202°
2026-04-21 14:25 28.85594 115.90043 137 ft 17 kts 202°
2026-04-21 14:25 28.85481 115.89988 136 ft 19 kts 204°
2026-04-21 14:25 28.85356 115.89927 135 ft 21 kts 202°
2026-04-21 14:26 28.85217 115.89862 134 ft 22 kts 202°
2026-04-21 14:26 28.85077 115.89793 132 ft 16 kts 204°
2026-04-21 14:26 28.85037 115.89708 131 ft 13 kts 292°
2026-04-21 14:26 28.85067 115.89638 128 ft 11 kts 296°
2026-04-21 14:27 28.85122 115.89609 128 ft 10 kts 27°
2026-04-21 14:27 28.85188 115.89643 129 ft 12 kts 24°
2026-04-21 14:27 28.85430 115.89756 134 ft 72 kts 22°
2026-04-21 14:27 28.86082 115.90068 138 ft 129 kts 22°
2026-04-21 14:28 28.87056 115.90531 155 ft 172 kts 21°
2026-04-21 14:28 28.88191 115.91092 621 ft 174 kts 24°
2026-04-21 14:28 28.89615 115.91735 1302 ft 175 kts 18°
2026-04-21 14:28 28.92154 115.92750 1798 ft 213 kts 18°
2026-04-21 14:29 28.95198 115.94000 2442 ft 247 kts 19°
2026-04-21 14:29 28.98473 115.95387 3825 ft 257 kts 19°
2026-04-21 14:29 29.01904 115.96935 5044 ft 272 kts 20°
2026-04-21 14:29 29.05404 115.98781 6375 ft 282 kts 21°
2026-04-21 14:30 29.08999 116.00722 7704 ft 289 kts 20°
2026-04-21 14:30 29.12676 116.02689 9039 ft 295 kts 19°
2026-04-21 14:30 29.16437 116.04685 10295 ft 300 kts 19°
2026-04-21 14:30 29.20349 116.05248 11429 ft 278 kts 332°
2026-04-21 14:31 29.23073 116.02569 12606 ft 255 kts 289°
2026-04-21 14:31 29.24453 115.98827 13791 ft 258 kts 288°
2026-04-21 14:31 29.25886 115.95016 14863 ft 262 kts 288°
2026-04-21 14:31 29.27351 115.91127 15853 ft 269 kts 288°
2026-04-21 14:32 29.28840 115.87150 16890 ft 274 kts 288°
2026-04-21 14:32 29.30350 115.83090 17915 ft 280 kts 288°
2026-04-21 14:32 29.31958 115.78776 18234 ft 310 kts 289°
2026-04-21 14:32 29.34751 115.74773 18468 ft 353 kts 321°
2026-04-21 14:33 29.39528 115.72472 18712 ft 387 kts 334°
2026-04-21 14:33 29.44789 115.70186 18915 ft 410 kts 334°
2026-04-21 14:33 29.50249 115.67781 19143 ft 429 kts 334°
2026-04-21 14:33 29.55793 115.65344 19812 ft 434 kts 334°
2026-04-21 14:34 29.61545 115.62823 20556 ft 439 kts 334°
2026-04-21 14:34 29.67223 115.60346 21188 ft 444 kts 334°
2026-04-21 14:34 29.73023 115.57811 21852 ft 448 kts 334°
2026-04-21 14:34 29.78878 115.55241 22516 ft 452 kts 334°
2026-04-21 14:35 29.84783 115.52651 23143 ft 456 kts 334°
2026-04-21 14:35 29.90728 115.50041 23703 ft 460 kts 334°
2026-04-21 14:35 29.96736 115.47394 24196 ft 463 kts 334°
2026-04-21 14:35 30.02763 115.44726 24689 ft 466 kts 333°
2026-04-21 14:36 30.08836 115.42036 25161 ft 469 kts 334°
2026-04-21 14:36 30.14958 115.39331 25656 ft 473 kts 334°
2026-04-21 14:36 30.21128 115.36609 26157 ft 476 kts 334°
2026-04-21 14:36 30.27348 115.33853 26681 ft 478 kts 333°
2026-04-21 14:37 30.33538 115.31106 27363 ft 477 kts 334°
2026-04-21 14:37 30.40207 115.30027 27951 ft 499 kts
2026-04-21 14:37 30.46780 115.32854 28572 ft 517 kts 32°
2026-04-21 14:37 30.51696 115.38960 29207 ft 523 kts 51°
2026-04-21 14:38 30.56127 115.45639 29841 ft 522 kts 51°
2026-04-21 14:38 30.60578 115.52305 30437 ft 521 kts 50°
2026-04-21 14:38 30.65007 115.58965 30951 ft 521 kts 50°
2026-04-21 14:39 30.73166 115.71293 31009 ft 516 kts 51°
2026-04-21 14:39 30.77533 115.77911 30994 ft 517 kts 50°
2026-04-21 14:40 30.81917 115.84562 30988 ft 518 kts 50°
2026-04-21 14:40 30.86169 115.91270 30992 ft 520 kts 57°
2026-04-21 14:41 30.89886 115.98497 31000 ft 521 kts 57°
2026-04-21 14:41 30.93602 116.05745 31011 ft 520 kts 58°
2026-04-21 14:42 30.97537 116.12751 31006 ft 515 kts 48°
2026-04-21 14:42 31.02123 116.19166 31006 ft 515 kts 48°
2026-04-21 14:43 31.06702 116.25591 31006 ft 515 kts 48°
2026-04-21 14:43 31.11279 116.32010 31012 ft 515 kts 48°
2026-04-21 14:44 31.15859 116.38444 31015 ft 515 kts 48°
2026-04-21 14:44 31.20434 116.44884 31017 ft 515 kts 48°
2026-04-21 14:45 31.25002 116.51340 31019 ft 515 kts 48°
2026-04-21 14:45 31.29571 116.57797 31012 ft 515 kts 48°
2026-04-21 14:46 31.47126 116.82707 31171 ft 512 kts 49°
2026-04-21 14:46 31.65322 117.08723 31142 ft 517 kts 49°
2026-04-21 14:47 31.83518 117.34873 30945 ft 523 kts 49°
2026-04-21 14:47 32.01539 117.60975 30858 ft 520 kts 49°
2026-04-21 14:48 32.18409 117.85565 30874 ft 522 kts 49°
2026-04-21 14:48 32.20673 117.88883 31040 ft 519 kts 49°
2026-04-21 14:48 32.22939 117.92201 31059 ft 519 kts 49°
2026-04-21 14:49 32.27476 117.98852 31043 ft 520 kts 49°
2026-04-21 14:49 32.32013 118.05519 31045 ft 520 kts 49°
2026-04-21 14:50 32.35779 118.11064 31044 ft 521 kts 49°
2026-04-21 14:50 32.41091 118.18891 31065 ft 522 kts 49°
2026-04-21 14:51 32.46484 118.26858 31047 ft 522 kts 49°
2026-04-21 14:51 32.56319 118.41442 31033 ft 524 kts 49°
2026-04-21 14:52 32.72834 118.69777 31039 ft 521 kts 60°
2026-04-21 14:52 32.86833 119.00169 31135 ft 519 kts 59°
2026-04-21 14:53 33.00865 119.30318 31196 ft 519 kts 59°
2026-04-21 14:53 33.15025 119.60839 31203 ft 526 kts 59°
2026-04-21 14:54 33.29186 119.91610 31124 ft 533 kts 59°
2026-04-21 14:54 33.42806 120.22661 31002 ft 537 kts 72°
2026-04-21 14:55 33.44562 120.31288 31086 ft 533 kts 76°
2026-04-21 14:55 33.46343 120.39891 31087 ft 532 kts 75°
2026-04-21 14:56 33.47854 120.47040 31087 ft 533 kts 75°
2026-04-21 14:56 33.49607 120.55410 31094 ft 533 kts 75°
2026-04-21 14:57 33.51384 120.64033 31096 ft 533 kts 76°
2026-04-21 14:57 33.53150 120.72666 31100 ft 533 kts 76°
2026-04-21 14:58 33.54913 120.81304 31102 ft 533 kts 76°
2026-04-21 14:58 33.56672 120.89934 31102 ft 533 kts 76°
2026-04-21 14:59 33.58435 120.98593 31106 ft 535 kts 75°
2026-04-21 14:59 33.60187 121.07262 31107 ft 535 kts 75°
2026-04-21 15:00 33.61928 121.15940 31115 ft 535 kts 76°
2026-04-21 15:00 33.64195 121.24395 31118 ft 530 kts 57°
2026-04-21 15:00 33.66312 121.27949 31117 ft 520 kts 42°
2026-04-21 15:01 33.69008 121.30763 31149 ft 508 kts 27°
2026-04-21 15:01 33.72041 121.32712 31114 ft 493 kts 13°
2026-04-21 15:01 33.75293 121.33801 31125 ft 479 kts
2026-04-21 15:01 33.78569 121.34033 31124 ft 465 kts 348°
2026-04-21 15:02 33.81717 121.33455 31125 ft 452 kts 337°
2026-04-21 15:02 33.87532 121.30844 31126 ft 445 kts 330°
2026-04-21 15:03 33.93298 121.28105 31132 ft 446 kts 331°
2026-04-21 15:03 33.99080 121.25360 31127 ft 446 kts 331°
2026-04-21 15:04 34.04859 121.22612 31131 ft 447 kts 331°
2026-04-21 15:04 34.10655 121.19850 31133 ft 448 kts 331°
2026-04-21 15:05 34.16462 121.17082 31139 ft 448 kts 331°
2026-04-21 15:05 34.25216 121.12895 31143 ft 453 kts 331°
2026-04-21 15:06 34.31076 121.10090 31145 ft 453 kts 331°
2026-04-21 15:06 34.36898 121.07302 31145 ft 453 kts 331°
2026-04-21 15:07 34.42762 121.04492 31148 ft 453 kts 331°
2026-04-21 15:07 34.48621 121.01670 31149 ft 454 kts 331°
2026-04-21 15:08 34.54483 120.98831 31149 ft 454 kts 331°
2026-04-21 15:08 34.60354 120.96003 31152 ft 454 kts 331°
2026-04-21 15:09 34.66226 120.93168 31155 ft 454 kts 331°
2026-04-21 15:09 34.72102 120.90321 31154 ft 455 kts 331°
2026-04-21 15:10 34.77980 120.87474 31009 ft 456 kts 331°
2026-04-21 15:10 34.80922 120.86047 30758 ft 455 kts 331°
2026-04-21 15:10 34.83859 120.84618 30494 ft 454 kts 331°
2026-04-21 15:11 34.86792 120.83192 29721 ft 455 kts 331°
2026-04-21 15:11 34.89697 120.81779 28787 ft 457 kts 331°
2026-04-21 15:11 34.92652 120.80339 28392 ft 459 kts 332°
2026-04-21 15:11 34.95624 120.78887 28156 ft 461 kts 331°
2026-04-21 15:12 34.98640 120.77413 27898 ft 462 kts 332°
2026-04-21 15:12 35.01633 120.75950 27641 ft 463 kts 332°
2026-04-21 15:12 35.04588 120.74507 27400 ft 464 kts 332°
2026-04-21 15:12 35.07588 120.73046 26543 ft 466 kts 332°
2026-04-21 15:13 35.10617 120.71562 25359 ft 473 kts 332°
2026-04-21 15:13 35.13692 120.70050 24212 ft 479 kts 332°
2026-04-21 15:13 35.16800 120.68524 23003 ft 484 kts 333°
2026-04-21 15:13 35.19917 120.67013 22340 ft 477 kts 333°
2026-04-21 15:14 35.22968 120.65547 21774 ft 466 kts 333°
2026-04-21 15:14 35.25944 120.64117 21441 ft 451 kts 333°
2026-04-21 15:14 35.28804 120.62741 21302 ft 432 kts 333°
2026-04-21 15:14 35.31547 120.61415 21187 ft 415 kts 333°
2026-04-21 15:15 35.34182 120.60135 20984 ft 401 kts 333°
2026-04-21 15:15 35.36749 120.58881 20617 ft 392 kts 333°
2026-04-21 15:15 35.39256 120.57653 20256 ft 384 kts 333°
2026-04-21 15:15 35.41719 120.56453 19900 ft 377 kts 333°
2026-04-21 15:16 35.44141 120.55282 19544 ft 371 kts 333°
2026-04-21 15:16 35.46524 120.54133 19219 ft 366 kts 333°
2026-04-21 15:16 35.48869 120.53002 18872 ft 357 kts 333°
2026-04-21 15:16 35.51135 120.51910 18630 ft 341 kts 333°
2026-04-21 15:17 35.53307 120.50861 18157 ft 334 kts 333°
2026-04-21 15:17 35.55433 120.49824 17510 ft 331 kts 333°
2026-04-21 15:17 35.57565 120.48779 16868 ft 329 kts 333°
2026-04-21 15:17 35.59684 120.47739 16240 ft 327 kts 333°
2026-04-21 15:18 35.61790 120.46707 15623 ft 325 kts 334°
2026-04-21 15:18 35.63884 120.45682 15020 ft 323 kts 334°
2026-04-21 15:18 35.65969 120.44665 14427 ft 321 kts 334°
2026-04-21 15:18 35.68043 120.43655 13842 ft 319 kts 334°
2026-04-21 15:19 35.70098 120.42651 13202 ft 317 kts 335°
2026-04-21 15:19 35.72142 120.41651 12556 ft 315 kts 335°
2026-04-21 15:19 35.74176 120.40658 11924 ft 313 kts 335°
2026-04-21 15:19 35.76195 120.39672 11300 ft 311 kts 336°
2026-04-21 15:20 35.78203 120.38692 10689 ft 309 kts 336°
2026-04-21 15:20 35.80196 120.37718 10100 ft 307 kts 336°
2026-04-21 15:20 35.82179 120.36748 9456 ft 305 kts 336°
2026-04-21 15:20 35.84152 120.35781 8807 ft 304 kts 337°
2026-04-21 15:21 35.86068 120.34841 8591 ft 288 kts 338°
2026-04-21 15:21 35.87905 120.33942 8460 ft 282 kts 338°
2026-04-21 15:21 35.89721 120.33053 8319 ft 281 kts 338°
2026-04-21 15:21 35.91539 120.32160 8073 ft 281 kts 338°
2026-04-21 15:22 35.93330 120.31279 7752 ft 281 kts 338°
2026-04-21 15:22 35.95140 120.30391 7382 ft 279 kts 339°
2026-04-21 15:22 35.96935 120.29494 7012 ft 278 kts 335°
2026-04-21 15:22 35.98547 120.28207 6650 ft 277 kts 318°
2026-04-21 15:23 35.99964 120.26600 6271 ft 276 kts 317°
2026-04-21 15:23 36.01364 120.25011 5889 ft 275 kts 317°
2026-04-21 15:23 36.02791 120.23397 5494 ft 274 kts 317°
2026-04-21 15:23 36.04198 120.21810 5126 ft 274 kts 317°
2026-04-21 15:24 36.05610 120.20218 4691 ft 275 kts 317°
2026-04-21 15:24 36.07197 120.18892 4172 ft 277 kts 339°
2026-04-21 15:24 36.08942 120.18191 4000 ft 249 kts 342°
2026-04-21 15:24 36.10491 120.17590 3997 ft 218 kts 342°
2026-04-21 15:25 36.11888 120.17044 4029 ft 202 kts 342°
2026-04-21 15:25 36.13133 120.16558 4001 ft 175 kts 342°
2026-04-21 15:25 36.14262 120.16117 3989 ft 168 kts 342°
2026-04-21 15:25 36.15375 120.15682 3865 ft 167 kts 341°
2026-04-21 15:26 36.16484 120.15249 3666 ft 167 kts 341°
2026-04-21 15:26 36.17590 120.14817 3457 ft 167 kts 341°
2026-04-21 15:26 36.18697 120.14384 3237 ft 167 kts 340°
2026-04-21 15:26 36.19800 120.13953 3000 ft 166 kts 340°
2026-04-21 15:27 36.20899 120.13523 2787 ft 165 kts 340°
2026-04-21 15:27 36.21990 120.13097 2560 ft 163 kts 340°
2026-04-21 15:27 36.23054 120.12681 2347 ft 161 kts 341°
2026-04-21 15:27 36.24115 120.12265 2116 ft 159 kts 341°
2026-04-21 15:28 36.25163 120.11855 1906 ft 157 kts 341°
2026-04-21 15:28 36.26194 120.11452 1707 ft 154 kts 342°
2026-04-21 15:28 36.27204 120.11055 1470 ft 151 kts 341°
2026-04-21 15:28 36.28195 120.10659 1244 ft 149 kts 341°
2026-04-21 15:29 36.29172 120.10266 1045 ft 147 kts 342°
2026-04-21 15:29 36.30142 120.09900 852 ft 145 kts 343°
2026-04-21 15:29 36.31104 120.09535 642 ft 143 kts 342°
2026-04-21 15:29 36.32050 120.09149 461 ft 144 kts 341°
2026-04-21 15:30 36.33000 120.08770 308 ft 144 kts 343°
2026-04-21 15:30 36.33951 120.08405 114 ft 142 kts 343°
2026-04-21 15:30 36.34857 120.08057 31 ft 121 kts 342°
2026-04-21 15:30 36.35436 120.07830 37 ft 51 kts 342°
2026-04-21 15:31 36.35677 120.07733 38 ft 27 kts 342°
2026-04-21 15:31 36.35853 120.07687 37 ft 25 kts
2026-04-21 15:31 36.35925 120.07696 37 ft 8 kts 12°
2026-04-21 15:31 36.35966 120.07707 38 ft 4 kts 12°
2026-04-21 15:32 36.35985 120.07711 38 ft 1 kts 11°
2026-04-21 15:32 36.36004 120.07716 38 ft 4 kts 12°
2026-04-21 15:32 36.36035 120.07740 38 ft 7 kts 53°
2026-04-21 15:32 36.36056 120.07817 38 ft 12 kts 73°
2026-04-21 15:33 36.36087 120.07940 37 ft 17 kts 72°
2026-04-21 15:33 36.36125 120.08098 36 ft 20 kts 78°
2026-04-21 15:33 36.36128 120.08186 37 ft 9 kts 49°
2026-04-21 15:33 36.36176 120.08203 37 ft 9 kts
2026-04-21 15:34 36.36199 120.08210 37 ft 0 kts 14°